Vorticity
nan nan nan nan nan nan nan nan nan nan nan nan nan nan nan nan nan nan nan nan nan nan
nan 8 10 8 8 8 9 10 10 10 8 8 8 8 6 7 8 8 9 9 9 nan
nan 9 9 10 11 13 9 9 10 10 8 8 8 7 7 8 8 7 7 9 9 nan
nan 9 10 10 7 12 11 12 9 9 8 8 7 7 7 6 8 8 7 9 9 nan
nan 12 7 4 12 9 9 10 9 9 9 9 7 8 7 7 9 9 9 9 8 nan
nan 7 7 10 8 5 10 8 10 10 10 10 9 8 8 8 8 8 8 8 8 nan
nan 9 8 7 7 7 7 8 9 8 9 8 9 9 9 9 8 8 8 9 9 nan
nan 9 8 8 4 6 2 5 10 12 9 8 8 11 10 8 8 8 8 8 10 nan
nan 8 6 6 7 5 6 8 7 8 9 7 9 10 8 8 8 9 8 9 10 nan
nan 8 9 7 7 5 6 7 8 7 9 9 10 11 11 9 6 10 9 8 9 nan
nan 9 10 9 7 5 9 9 8 9 9 10 9 17 15 10 10 11 11 10 10 nan
nan 10 9 8 7 7 8 10 10 10 12 9 7 10 13 13 10 11 14 16 15 nan
nan 10 9 9 8 8 9 9 12 12 14 13 13 12 7 4 8 9 12 12 14 nan
nan nan nan nan nan nan nan nan nan nan nan nan nan nan nan nan nan nan nan nan nan nan
CAPE
2655 2276 1651 1641 752 274 237 126 386 568 598 422 203 137 100 85 118 107 136 229 170 65
2677 2368 1696 1443 446 253 234 151 316 421 463 207 63 110 225 94 264 222 270 204 275 196
2145 1905 1667 491 42 99 137 181 350 391 275 183 172 202 293 145 90 195 206 165 241 276
1804 1310 48 253 9 1 22 94 302 257 198 283 288 249 290 253 174 235 300 296 308 382
967 35 422 61 92 30 27 13 59 193 269 317 327 267 332 299 102 258 291 205 365 379
98 229 48 0 21 2 17 32 33 90 273 260 328 353 393 309 310 288 209 292 391 418
189 379 126 0 0 0 0 0 15 16 65 238 427 373 308 277 362 387 361 384 490 552
340 411 239 138 6 0 0 1 16 5 36 131 240 223 274 319 522 756 652 555 605 418
460 540 383 184 66 0 0 0 64 9 27 177 182 26 0 217 724 891 746 670 631 500
656 629 432 171 134 77 45 21 46 55 114 303 360 52 14 9 619 954 860 790 721 476
665 603 474 311 165 210 211 18 118 196 352 365 584 136 36 22 450 736 801 785 742 407
788 670 451 284 228 361 333 190 182 275 430 516 850 6 0 0 76 92 154 428 182 45
822 665 396 317 254 336 309 327 297 283 361 323 639 29 1 1 1 20 11 1 3 0
720 544 470 576 566 554 476 422 461 503 709 276 320 35 18 0 0 6 1 0 35 8